(163452) = 2002 RE124

Discovered at Palomar on 2002-09-09 by NEAT.

Orbit

Orbit type: Main Belt

Note: WebGL enabled browser required.

epoch2024-03-31.0
epoch JD2460400.5
perihelion date2023-07-04.70867
perihelion JD2460130.20867
argument of perihelion (°)267.38970
ascending node (°)104.47914
inclination (°)12.99639
eccentricity0.0769971
perihelion distance (AU)2.7393544
Tisserand w.r.t. Jupiter3.2
ΔV w.r.t. Earth (km/sec)11.1
semimajor axis (AU)2.9678718
mean anomaly (°)52.10366
mean daily motion (°/day)0.19276850
aphelion distance (AU)3.196
period (years)5.11
P-vector [x]0.95384453
P-vector [y]0.27219354
P-vector [z]-0.12685143
Q-vector [x]-0.20680164
Q-vector [y]0.90167361
Q-vector [z]0.37976016
absolute magnitude14.99
phase slope0.15
uncertainty0
referenceMPEC 2024-C163
observations used1023
oppositions20
arc length (days)8694
first opposition used2000
last opposition used2024
residual rms (arc-secs)0.75
perturbers coarse indicatorM-v
perturbers precise indicator003Ek
first observation date used2000-03-26.0
last observation date used2024-01-14.0
computer nameMPCLINUX
JD of orbit computation2456966.885523
perihelion JD uncertainty (days)2.9763E-04
argument of perihelion uncertainty (°)6.8699E-05
ascending node uncertainty (°)3.7105E-05
inclination uncertainty (°)8.1836E-06
eccentricity uncertainty 7.4626E-08
perihelion distance uncertainty (AU)2.1568E-07
Minimum Orbit Intersection Distances (in AU)
for orbit epoch: 2460200.5, reference: E2024-CG3
Mercury2.38175
Venus2.02933
Earth1.77877
Mars1.33828
Jupiter2.22826
Saturn6.09696
Uranus15.3417
Neptune27.1146

Observations

1045 total observations over interval: 2000 03 26.24664 – 2024 01 14.151471
These data are available for download (format description).

Date (UT) J2000 RA J2000 Dec Magn Location Ref
2000 03 26.24664 11 49 04.28 +20 15 05.0 19.1 R 699 – Lowell Observatory-LONEOS MPS 167021
2000 03 26.26807 11 49 03.25 +20 15 11.0   699 – Lowell Observatory-LONEOS MPS 167021
2000 03 26.28946 11 49 02.30 +20 15 16.1   699 – Lowell Observatory-LONEOS MPS 167021
2000 03 26.31094 11 49 01.22 +20 15 21.4   699 – Lowell Observatory-LONEOS MPS 167021
2001 06 15.22712 16 24 05.73 -10 57 12.3 19.4   704 – Lincoln Laboratory ETS, New Mexico MPS 167021
2001 06 15.23893 16 24 05.08 -10 57 14.4 19.1   704 – Lincoln Laboratory ETS, New Mexico MPS 167021
2001 06 15.26296 16 24 03.87 -10 57 18.8 19.6   704 – Lincoln Laboratory ETS, New Mexico MPS 167021
2002 08 20.38604 23 23 53.91 -21 16 52.2 19.6   644 – Palomar Mountain/NEAT MPS 167021
2002 08 20.40698 23 23 53.12 -21 17 03.3 19.0   644 – Palomar Mountain/NEAT MPS 167021
2002 08 20.42810 23 23 52.31 -21 17 14.4 18.8   644 – Palomar Mountain/NEAT MPS 167021
2002 09 08.45376 23 10 29.10 -23 45 56.2 20.8   608 – Haleakala-AMOS MPS 82982
2002 09 08.46631 23 10 28.50 -23 46 01.7 20.7   608 – Haleakala-AMOS MPS 82982
2002 09 08.47786 23 10 27.92 -23 46 06.7 21.0   608 – Haleakala-AMOS MPS 82982
2002 09 09.38718 23 09 46.01 -23 51 52.3 19.6   644 – Palomar Mountain/NEAT MPS 61758
2002 09 09.41043 23 09 44.87 -23 52 00.6 19.0   644 – Palomar Mountain/NEAT MPS 61758
2002 09 09.43413 23 09 43.76 -23 52 10.0 18.9   644 – Palomar Mountain/NEAT MPS 61758
2002 09 10.24954 23 09 06.58 -23 57 13.2 18.9   644 – Palomar Mountain/NEAT MPS 61758
2002 09 10.27139 23 09 05.55 -23 57 21.3 19.6   644 – Palomar Mountain/NEAT MPS 61758
2002 09 10.29268 23 09 04.53 -23 57 29.2 19.5   644 – Palomar Mountain/NEAT MPS 61758
2002 09 17.28099 23 03 48.64 -24 34 47.2 18.5   644 – Palomar Mountain/NEAT MPS 63561
2002 09 17.30263 23 03 47.64 -24 34 53.1 18.6   644 – Palomar Mountain/NEAT MPS 63561
2002 09 17.32361 23 03 46.69 -24 34 58.8 19.0   644 – Palomar Mountain/NEAT MPS 63561
2003 12 19.32736 05 29 24.26 +16 07 57.0 19.2   704 – Lincoln Laboratory ETS, New Mexico MPS 167021
2003 12 19.34101 05 29 23.50 +16 07 59.1 20.2   704 – Lincoln Laboratory ETS, New Mexico MPS 167021
2003 12 19.39220 05 29 20.53 +16 08 10.0 19.2   704 – Lincoln Laboratory ETS, New Mexico MPS 167021
2003 12 27.22665 05 22 11.61 +16 36 17.1 19.5   704 – Lincoln Laboratory ETS, New Mexico MPS 167021
2003 12 27.24071 05 22 10.75 +16 36 19.8 19.8   704 – Lincoln Laboratory ETS, New Mexico MPS 167021
2003 12 27.25380 05 22 10.08 +16 36 23.3 19.6   704 – Lincoln Laboratory ETS, New Mexico MPS 167021
2003 12 27.26770 05 22 09.34 +16 36 25.2 19.3   704 – Lincoln Laboratory ETS, New Mexico MPS 167021
2003 12 27.28092 05 22 08.54 +16 36 28.5 19.7   704 – Lincoln Laboratory ETS, New Mexico MPS 167021
2005 03 16.28170 11 17 02.10 +22 26 36.6 19.0 R 703 – Catalina Sky Survey MPS 167021
2005 03 16.29023 11 17 01.69 +22 26 38.7 18.7 R 703 – Catalina Sky Survey MPS 167021
2005 03 16.29877 11 17 01.24 +22 26 41.3 19.1 R 703 – Catalina Sky Survey MPS 167021
2005 03 16.30733 11 17 00.96 +22 26 44.4 19.0 R 703 – Catalina Sky Survey MPS 167021
2005 04 01.21606 11 06 00.81 +23 18 35.0 20.1 R 703 – Catalina Sky Survey MPS 167021
2005 04 01.22414 11 06 00.41 +23 18 36.3 18.9 R 703 – Catalina Sky Survey MPS 167021
2005 04 01.23225 11 06 00.24 +23 18 35.8 18.8 R 703 – Catalina Sky Survey MPS 167021
2005 04 01.24037 11 05 59.95 +23 18 37.8 19.5 R 703 – Catalina Sky Survey MPS 167021
2006 04 30.37633 16 21 02.95 -07 21 31.8 19.7 V 703 – Catalina Sky Survey MPS 170799
2006 04 30.38431 16 21 02.62 -07 21 31.7 18.8 V 703 – Catalina Sky Survey MPS 170799
2006 04 30.39230 16 21 02.34 -07 21 31.3 18.5 V 703 – Catalina Sky Survey MPS 170799
2006 04 30.40029 16 21 02.08 -07 21 29.9 18.4 V 703 – Catalina Sky Survey MPS 170799
2006 05 09.24355 16 14 52.72 -07 08 15.2 18.9 V G96 – Mt. Lemmon Survey MPS 171373
2006 05 09.25083 16 14 52.36 -07 08 14.6 18.9 V G96 – Mt. Lemmon Survey MPS 171373
2006 05 09.25802 16 14 52.08 -07 08 14.2 19.1 V G96 – Mt. Lemmon Survey MPS 171373
2006 05 09.26518 16 14 51.72 -07 08 13.7 18.9 V G96 – Mt. Lemmon Survey MPS 171373
2006 05 23.29731 16 03 25.42 -06 59 30.4 19.4 V 691 – Steward Observatory, Kitt Peak-Spacewatch MPS 171976
2006 05 23.31455 16 03 24.47 -06 59 31.2 19.2 V 691 – Steward Observatory, Kitt Peak-Spacewatch MPS 171976
2006 05 23.33185 16 03 23.54 -06 59 29.5 19.2 V 691 – Steward Observatory, Kitt Peak-Spacewatch MPS 171976
2006 05 27.29843 16 00 01.80 -07 00 26.1 19.1 V 703 – Catalina Sky Survey MPS 172796
2006 05 27.30707 16 00 01.26 -07 00 25.9 19.0 V 703 – Catalina Sky Survey MPS 172796
2006 05 27.31576 16 00 00.79 -07 00 26.6 18.9 V 703 – Catalina Sky Survey MPS 172796
2006 05 27.32437 16 00 00.36 -07 00 27.7 19.1 V 703 – Catalina Sky Survey MPS 172796
2006 06 20.18066 15 42 15.57 -07 42 29.6 20.1 V 691 – Steward Observatory, Kitt Peak-Spacewatch MPS 173873
2006 06 20.20096 15 42 14.82 -07 42 33.7 20.4 V 691 – Steward Observatory, Kitt Peak-Spacewatch MPS 173873
2006 06 20.21832 15 42 14.20 -07 42 37.1 20.5 V 691 – Steward Observatory, Kitt Peak-Spacewatch MPS 173873
2006 06 20.22887 15 42 13.78 -07 42 39.3 19.4 V 703 – Catalina Sky Survey MPS 173873
2006 06 20.23531 15 42 13.50 -07 42 39.8 20.0 V 703 – Catalina Sky Survey MPS 173873
2006 06 20.24175 15 42 13.39 -07 42 42.1 19.0 V 703 – Catalina Sky Survey MPS 173873
2006 06 20.24819 15 42 13.10 -07 42 42.9 20.0 V 703 – Catalina Sky Survey MPS 173873
2007 07 19.62482 22 41 15.32 -20 31 03.2 19.7 V E12 – Siding Spring Survey MPS 211979
2007 07 19.63549 22 41 15.21 -20 31 07.6 19.4 V E12 – Siding Spring Survey MPS 211979
2007 07 19.64630 22 41 15.10 -20 31 12.9 19.5 V E12 – Siding Spring Survey MPS 211979
2007 07 19.65742 22 41 14.85 -20 31 18.4 19.9 V E12 – Siding Spring Survey MPS 211979
2007 09 08.54045 22 09 55.04 -27 01 21.3 19.4 V E12 – Siding Spring Survey MPS 215047
2007 09 08.54506 22 09 54.82 -27 01 22.5 18.8 V E12 – Siding Spring Survey MPS 215047
2007 09 08.54944 22 09 54.64 -27 01 23.3 19.3 V E12 – Siding Spring Survey MPS 215047
2007 09 08.55392 22 09 54.43 -27 01 24.8 19.6 V E12 – Siding Spring Survey MPS 215047
2008 10 26.37390 05 16 57.62 +11 18 47.2 19.8   704 – Lincoln Laboratory ETS, New Mexico MPS 262927
2008 10 26.38549 05 16 57.39 +11 18 48.3 19.8   704 – Lincoln Laboratory ETS, New Mexico MPS 262927
2008 10 26.40884 05 16 56.89 +11 18 47.8 19.8   704 – Lincoln Laboratory ETS, New Mexico MPS 262927
2008 12 01.36933 04 52 50.08 +11 35 46.2 18.3 V 703 – Catalina Sky Survey MPS 268652
2008 12 01.37845 04 52 49.54 +11 35 47.6 18.3 V 703 – Catalina Sky Survey MPS 268652
2008 12 01.38744 04 52 49.00 +11 35 49.3 18.5 V 703 – Catalina Sky Survey MPS 268652
2008 12 03.37574 04 50 58.30 +11 39 34.3 18.8 V G96 – Mt. Lemmon Survey MPS 268652
2008 12 03.38337 04 50 57.87 +11 39 35.4 19.0 V G96 – Mt. Lemmon Survey MPS 268653
2008 12 03.39113 04 50 57.44 +11 39 36.3 19.0 V G96 – Mt. Lemmon Survey MPS 268653
2008 12 03.39879 04 50 57.01 +11 39 37.1 18.7 V G96 – Mt. Lemmon Survey MPS 268653
2008 12 04.16929 04 50 14.25 +11 41 08.1 19.2   704 – Lincoln Laboratory ETS, New Mexico MPS 268653
2008 12 04.18106 04 50 13.60 +11 41 11.4 19.3   704 – Lincoln Laboratory ETS, New Mexico MPS 268653
2008 12 04.19274 04 50 12.88 +11 41 13.2 18.9   704 – Lincoln Laboratory ETS, New Mexico MPS 268653
2008 12 21.24664 04 35 05.28 +12 28 25.1 18.9 V 703 – Catalina Sky Survey MPS 269911
2008 12 21.25392 04 35 04.95 +12 28 26.6 19.2 V 703 – Catalina Sky Survey MPS 269911
2008 12 21.26112 04 35 04.63 +12 28 28.1 18.7 V 703 – Catalina Sky Survey MPS 269911
2008 12 21.26838 04 35 04.23 +12 28 30.2 19.2 V 703 – Catalina Sky Survey MPS 269911
2009 01 01.25925 04 27 25.48 +13 11 03.2 18.9 V G96 – Mt. Lemmon Survey MPS 271577
2009 01 01.26700 04 27 25.20 +13 11 05.3 19.1 V G96 – Mt. Lemmon Survey MPS 271577
2009 01 01.27499 04 27 24.91 +13 11 07.2 19.4 V G96 – Mt. Lemmon Survey MPS 271577
2009 01 01.28271 04 27 24.62 +13 11 09.3 19.4 V G96 – Mt. Lemmon Survey MPS 271577
2010 03 04.42101 10 45 00.10 +24 04 44.2 20.1 V 703 – Catalina Sky Survey MPS 317660
2010 03 04.42633 10 44 59.89 +24 04 47.7 19.3 V 703 – Catalina Sky Survey MPS 317660
2010 03 04.43169 10 44 59.60 +24 04 49.6 20.7 V 703 – Catalina Sky Survey MPS 317660
